Home   Weather   Rabat   Past weeks

Flag for Morocco Past Weather in Rabat, Morocco — Yesterday and Last 2 Weeks

Now
72 °F

Clear.


Feels Like: 77 °F
Forecast: 60 / 74 °F
Wind: 7 mph from Northwest

Location: Rabat-Sale

Current Time: Apr 27, 2017 at 12:34:22 pm

Latest Report: Apr 27, 2017 at 12:00 pm


Visibility: 5 mi

Pressure: 29.83 "Hg

Humidity: 53%

Dew Point: 54 °F

Location of RabatLocation

Past Weather in Rabat — Graph

°F

Rabat Temperature Yesterday

Maximum temperature yesterday: 70 °F (at 2:00 pm)
Minimum temperature yesterday: 54 °F (at 7:00 am)
Average temperature yesterday: 62 °F

High & Low Weather Summary for the Past Weeks

 TemperatureHumidityPressure
High91 °F (Apr 18, 2:00 pm)100% (Apr 17, 8:00 am)30.18 "Hg (Apr 17, 8:00 am)
Low48 °F (Apr 17, 7:00 am)16% (Apr 18, 3:30 pm)29.68 "Hg (Apr 20, 3:00 am)
Average65 °F74%29.96 "Hg
* Reported Apr 12 11:00 am — Apr 27 11:00 am, Rabat, Weather by CustomWeather, © 2017

Note: Actual official high and low records may vary slightly from our data, if they occured in-between our weather recording intervals... More about our weather records

Advertising

Rabat Weather History for the Previous 24 Hours

Scroll right to see more
 ConditionsComfort  
Time TempWeatherWind HumidityBarometerVisibility
11:00 am
Thu, Apr 27
72 °FClear.5 mph50%29.83 "Hg4 mi
10:30 am70 °FScattered clouds.6 mph57%29.86 "Hg4 mi
10:00 am68 °FScattered clouds.3 mph60%29.83 "Hg4 mi
9:30 am66 °FPartly sunny.2 mph68%29.86 "Hg4 mi
9:00 am63 °FPartly sunny.1 mph83%29.86 "Hg4 mi
8:00 am59 °FScattered clouds.1 mph88%29.86 "Hg4 mi
7:30 am57 °FScattered clouds.2 mph88%29.83 "Hg4 mi
7:00 am55 °FScattered clouds.3 mph94%29.83 "HgN/A
6:30 am55 °FScattered clouds.3 mph88%29.83 "HgN/A
6:00 am55 °FScattered clouds.3 mph88%29.83 "HgN/A
5:30 am54 °FPassing clouds.2 mph94%29.83 "HgN/A
5:00 am54 °FPassing clouds.2 mph94%29.83 "HgN/A
4:30 am54 °FPassing clouds.2 mph94%29.83 "HgN/A
4:00 am54 °FPassing clouds.No wind94%29.83 "HgN/A
3:30 am55 °FPassing clouds.3 mph94%29.83 "HgN/A
2:30 am54 °FPassing clouds.2 mph94%29.86 "HgN/A
2:00 am55 °FPassing clouds.3 mph88%29.86 "HgN/A
1:30 am54 °FPassing clouds.2 mph94%29.86 "HgN/A
1:00 am55 °FPassing clouds.3 mph88%29.89 "HgN/A
12:30 am55 °FPassing clouds.2 mph88%29.89 "HgN/A
12:00 am55 °FPassing clouds.2 mph88%29.89 "HgN/A
11:30 pm
Wed, Apr 26
55 °FPassing clouds.2 mph88%29.89 "HgN/A
10:30 pm57 °FPassing clouds.1 mph82%29.89 "HgN/A
10:00 pm59 °FPassing clouds.2 mph82%29.89 "HgN/A
9:30 pm59 °FPassing clouds.No wind82%29.89 "HgN/A
9:00 pm61 °FClear.2 mph77%29.86 "Hg10 mi
8:30 pm63 °FClear.3 mph73%29.86 "Hg10 mi
8:00 pm64 °FPassing clouds.7 mph68%29.86 "HgN/A
7:00 pm66 °FPassing clouds.9 mph64%29.86 "HgN/A
6:30 pm68 °FPassing clouds.12 mph60%29.86 "HgN/A
6:00 pm68 °FPassing clouds.10 mph64%29.86 "HgN/A
5:00 pm70 °FScattered clouds.9 mph60%29.86 "HgN/A
4:30 pm70 °FScattered clouds.8 mph60%29.86 "HgN/A
4:00 pm70 °FScattered clouds.8 mph57%29.86 "HgN/A
3:30 pm70 °FScattered clouds.9 mph60%29.86 "HgN/A
3:00 pm70 °FScattered clouds.12 mph60%29.89 "HgN/A
2:30 pm70 °FScattered clouds.7 mph60%29.89 "HgN/A
2:00 pm70 °FScattered clouds.7 mph57%29.89 "HgN/A
1:00 pm68 °FScattered clouds.6 mph60%29.89 "HgN/A
12:30 pm68 °FScattered clouds.7 mph60%29.89 "Hg5 mi
12:00 pm68 °FScattered clouds.8 mph60%29.89 "Hg5 mi
Weather by CustomWeather, © 2017

See weather overviewHow to use our weather pages